Year,Month,Day,Hour,Minute,Value (Times are PST for temperature in C)
2012,06,20,00,00,12.20
2012,06,20,00,01,12.10
2012,06,20,00,02,12.10
2012,06,20,00,03,12.00
2012,06,20,00,04,12.00
2012,06,20,00,05,12.00
2012,06,20,00,06,11.90
2012,06,20,00,07,11.90
2012,06,20,00,08,11.90
2012,06,20,00,09,11.80
2012,06,20,00,10,11.80
2012,06,20,00,11,11.80
2012,06,20,00,12,11.80
2012,06,20,00,13,11.80
2012,06,20,00,14,11.70
2012,06,20,00,15,11.70
2012,06,20,00,16,11.70
2012,06,20,00,17,11.60
2012,06,20,00,18,11.60
2012,06,20,00,19,11.60
2012,06,20,00,20,11.60
2012,06,20,00,21,11.60
2012,06,20,00,22,11.50
2012,06,20,00,23,11.40
2012,06,20,00,24,11.40
2012,06,20,00,25,11.40
2012,06,20,00,26,11.40
2012,06,20,00,27,11.40
2012,06,20,00,28,11.40
2012,06,20,00,29,11.30
2012,06,20,00,30,11.30
2012,06,20,00,31,11.30
2012,06,20,00,32,11.30
2012,06,20,00,33,11.20
2012,06,20,00,34,11.20
2012,06,20,00,35,11.20
2012,06,20,00,36,11.20
2012,06,20,00,37,11.10
2012,06,20,00,38,11.10
2012,06,20,00,39,11.10
2012,06,20,00,40,11.10
2012,06,20,00,41,11.10
2012,06,20,00,42,11.10
2012,06,20,00,43,11.10
2012,06,20,00,44,11.00
2012,06,20,00,45,10.90
2012,06,20,00,46,10.90
2012,06,20,00,47,10.90
2012,06,20,00,48,10.90
2012,06,20,00,49,10.90
2012,06,20,00,50,10.90
2012,06,20,00,51,10.90
2012,06,20,00,52,10.90
2012,06,20,00,53,10.90
2012,06,20,00,54,10.90
2012,06,20,00,55,10.90
2012,06,20,00,56,10.90
2012,06,20,00,57,10.80
2012,06,20,00,58,10.80
2012,06,20,00,59,10.80
2012,06,20,01,00,10.80
2012,06,20,01,01,10.80
2012,06,20,01,02,10.80
2012,06,20,01,03,10.80
2012,06,20,01,04,10.80
2012,06,20,01,05,10.80
2012,06,20,01,06,10.70
2012,06,20,01,07,10.70
2012,06,20,01,08,10.70
2012,06,20,01,09,10.70
2012,06,20,01,10,10.70
2012,06,20,01,11,10.70
2012,06,20,01,12,10.70
2012,06,20,01,13,10.70
2012,06,20,01,14,10.70
2012,06,20,01,15,10.70
2012,06,20,01,16,10.60
2012,06,20,01,17,10.60
2012,06,20,01,18,10.60
2012,06,20,01,19,10.60
2012,06,20,01,20,10.60
2012,06,20,01,21,10.60
2012,06,20,01,22,10.60
2012,06,20,01,23,10.60
2012,06,20,01,24,10.60
2012,06,20,01,25,10.60
2012,06,20,01,26,10.60
2012,06,20,01,27,10.60
2012,06,20,01,28,10.60
2012,06,20,01,29,10.60
2012,06,20,01,30,10.60
2012,06,20,01,31,10.60
2012,06,20,01,32,10.60
2012,06,20,01,33,10.60
2012,06,20,01,34,10.60
2012,06,20,01,35,10.60
2012,06,20,01,36,10.60
2012,06,20,01,37,10.50
2012,06,20,01,38,10.40
2012,06,20,01,39,10.40
2012,06,20,01,40,10.40
2012,06,20,01,41,10.40
2012,06,20,01,42,10.40
2012,06,20,01,43,10.40
2012,06,20,01,44,10.40
2012,06,20,01,45,10.40
2012,06,20,01,46,10.40
2012,06,20,01,47,10.40
2012,06,20,01,48,10.40
2012,06,20,01,49,10.40
2012,06,20,01,50,10.40
2012,06,20,01,51,10.40
2012,06,20,01,52,10.30
2012,06,20,01,53,10.30
2012,06,20,01,54,10.30
2012,06,20,01,55,10.30
2012,06,20,01,56,10.30
2012,06,20,01,57,10.30
2012,06,20,01,58,10.30
2012,06,20,01,59,10.20
2012,06,20,02,00,10.20
2012,06,20,02,01,10.20
2012,06,20,02,02,10.20
2012,06,20,02,03,10.20
2012,06,20,02,04,10.20
2012,06,20,02,05,10.20
2012,06,20,02,06,10.20
2012,06,20,02,07,10.20
2012,06,20,02,08,10.20
2012,06,20,02,09,10.20
2012,06,20,02,10,10.20
2012,06,20,02,11,10.10
2012,06,20,02,12,10.10
2012,06,20,02,13,10.10
2012,06,20,02,14,10.10
2012,06,20,02,15,10.10
2012,06,20,02,16,10.10
2012,06,20,02,17,10.10
2012,06,20,02,18,10.10
2012,06,20,02,19,10.10
2012,06,20,02,20,10.10
2012,06,20,02,21,10.10
2012,06,20,02,22,10.10
2012,06,20,02,23,10.10
2012,06,20,02,24,10.10
2012,06,20,02,25,10.10
2012,06,20,02,26,10.10
2012,06,20,02,27,10.10
2012,06,20,02,28,10.10
2012,06,20,02,29,10.00
2012,06,20,02,30,9.90
2012,06,20,02,31,9.90
2012,06,20,02,32,9.90
2012,06,20,02,33,9.90
2012,06,20,02,34,9.90
2012,06,20,02,35,9.90
2012,06,20,02,36,9.90
2012,06,20,02,37,9.90
2012,06,20,02,38,9.90
2012,06,20,02,39,9.90
2012,06,20,02,40,9.90
2012,06,20,02,41,9.90
2012,06,20,02,42,9.90
2012,06,20,02,43,9.80
2012,06,20,02,44,9.80
2012,06,20,02,45,9.80
2012,06,20,02,46,9.80
2012,06,20,02,47,9.80
2012,06,20,02,48,9.80
2012,06,20,02,49,9.70
2012,06,20,02,50,9.70
2012,06,20,02,51,9.70
2012,06,20,02,52,9.70
2012,06,20,02,53,9.70
2012,06,20,02,54,9.70
2012,06,20,02,55,9.70
2012,06,20,02,56,9.70
2012,06,20,02,57,9.70
2012,06,20,02,58,9.70
2012,06,20,02,59,9.70
2012,06,20,03,00,9.70
2012,06,20,03,01,9.70
2012,06,20,03,02,9.70
2012,06,20,03,03,9.70
2012,06,20,03,04,9.70
2012,06,20,03,05,9.70
2012,06,20,03,06,9.70
2012,06,20,03,07,9.70
2012,06,20,03,08,9.70
2012,06,20,03,09,9.70
2012,06,20,03,10,9.70
2012,06,20,03,11,9.70
2012,06,20,03,12,9.70
2012,06,20,03,13,9.70
2012,06,20,03,14,9.70
2012,06,20,03,15,9.60
2012,06,20,03,16,9.60
2012,06,20,03,17,9.60
2012,06,20,03,18,9.60
2012,06,20,03,19,9.60
2012,06,20,03,20,9.60
2012,06,20,03,21,9.60
2012,06,20,03,22,9.60
2012,06,20,03,23,9.60
2012,06,20,03,24,9.60
2012,06,20,03,25,9.50
2012,06,20,03,26,9.50
2012,06,20,03,27,9.50
2012,06,20,03,28,9.50
2012,06,20,03,29,9.50
2012,06,20,03,30,9.50
2012,06,20,03,31,9.50
2012,06,20,03,32,9.50
2012,06,20,03,33,9.50
2012,06,20,03,34,9.50
2012,06,20,03,35,9.50
2012,06,20,03,36,9.50
2012,06,20,03,37,9.50
2012,06,20,03,38,9.50
2012,06,20,03,39,9.50
2012,06,20,03,40,9.40
2012,06,20,03,41,9.40
2012,06,20,03,42,9.40
2012,06,20,03,43,9.40
2012,06,20,03,44,9.40
2012,06,20,03,45,9.40
2012,06,20,03,46,9.40
2012,06,20,03,47,9.40
2012,06,20,03,48,9.40
2012,06,20,03,49,9.40
2012,06,20,03,50,9.40
2012,06,20,03,51,9.40
2012,06,20,03,52,9.40
2012,06,20,03,53,9.40
2012,06,20,03,54,9.40
2012,06,20,03,55,9.40
2012,06,20,03,56,9.40
2012,06,20,03,57,9.40
2012,06,20,03,58,9.40
2012,06,20,03,59,9.30
2012,06,20,04,00,9.30
2012,06,20,04,01,9.30
2012,06,20,04,02,9.30
2012,06,20,04,03,9.30
2012,06,20,04,04,9.30
2012,06,20,04,05,9.30
2012,06,20,04,06,9.30
2012,06,20,04,07,9.30
2012,06,20,04,08,9.30
2012,06,20,04,09,9.30
2012,06,20,04,10,9.30
2012,06,20,04,11,9.30
2012,06,20,04,12,9.30
2012,06,20,04,13,9.30
2012,06,20,04,14,9.30
2012,06,20,04,15,9.30
2012,06,20,04,16,9.30
2012,06,20,04,17,9.30
2012,06,20,04,18,9.20
2012,06,20,04,19,9.20
2012,06,20,04,20,9.20
2012,06,20,04,21,9.20
2012,06,20,04,22,9.20
2012,06,20,04,23,9.20
2012,06,20,04,24,9.20
2012,06,20,04,25,9.20
2012,06,20,04,26,9.20
2012,06,20,04,27,9.20
2012,06,20,04,28,9.20
2012,06,20,04,29,9.20
2012,06,20,04,30,9.20
2012,06,20,04,31,9.20
2012,06,20,04,32,9.20
2012,06,20,04,33,9.20
2012,06,20,04,34,9.20
2012,06,20,04,35,9.10
2012,06,20,04,36,9.10
2012,06,20,04,37,9.10
2012,06,20,04,38,9.10
2012,06,20,04,39,9.10
2012,06,20,04,40,9.10
2012,06,20,04,41,9.10
2012,06,20,04,42,9.10
2012,06,20,04,43,9.10
2012,06,20,04,44,9.10
2012,06,20,04,45,9.10
2012,06,20,04,46,9.10
2012,06,20,04,47,9.10
2012,06,20,04,48,9.10
2012,06,20,04,49,9.10
2012,06,20,04,50,9.10
2012,06,20,04,51,9.00
2012,06,20,04,52,9.00
2012,06,20,04,53,9.00
2012,06,20,04,54,9.00
2012,06,20,04,55,9.00
2012,06,20,04,56,9.00
2012,06,20,04,57,9.00
2012,06,20,04,58,9.00
2012,06,20,04,59,9.00
2012,06,20,05,00,9.00
2012,06,20,05,01,9.00
2012,06,20,05,02,9.00
2012,06,20,05,03,9.00
2012,06,20,05,04,9.00
2012,06,20,05,05,9.00
2012,06,20,05,06,9.00
2012,06,20,05,07,9.00
2012,06,20,05,08,9.00
2012,06,20,05,09,9.00
2012,06,20,05,10,9.00
2012,06,20,05,11,9.00
2012,06,20,05,12,9.00
2012,06,20,05,13,9.00
2012,06,20,05,14,9.00
2012,06,20,05,15,9.00
2012,06,20,05,16,9.00
2012,06,20,05,17,9.00
2012,06,20,05,18,8.90
2012,06,20,05,19,8.90
2012,06,20,05,20,8.90
2012,06,20,05,21,8.90
2012,06,20,05,22,8.90
2012,06,20,05,23,8.90
2012,06,20,05,24,8.90
2012,06,20,05,25,8.90
2012,06,20,05,26,8.90
2012,06,20,05,27,8.90
2012,06,20,05,28,8.90
2012,06,20,05,29,8.90
2012,06,20,05,30,8.90
2012,06,20,05,31,8.90
2012,06,20,05,32,8.90
2012,06,20,05,33,8.90
2012,06,20,05,34,8.90
2012,06,20,05,35,8.90
2012,06,20,05,36,8.90
2012,06,20,05,37,8.90
2012,06,20,05,38,8.90
2012,06,20,05,39,8.90
2012,06,20,05,40,8.90
2012,06,20,05,41,8.90
2012,06,20,05,42,8.90
2012,06,20,05,43,8.90
2012,06,20,05,44,8.90
2012,06,20,05,45,8.90
2012,06,20,05,46,9.00
2012,06,20,05,47,9.00
2012,06,20,05,48,9.00
2012,06,20,05,49,9.00
2012,06,20,05,50,9.00
2012,06,20,05,51,9.00
2012,06,20,05,52,9.00
2012,06,20,05,53,9.10
2012,06,20,05,54,9.10
2012,06,20,05,55,9.10
2012,06,20,05,56,9.10
2012,06,20,05,57,9.10
2012,06,20,05,58,9.20
2012,06,20,05,59,9.20
2012,06,20,06,00,9.20
2012,06,20,06,01,9.20
2012,06,20,06,02,9.20
2012,06,20,06,03,9.20
2012,06,20,06,04,9.20
2012,06,20,06,05,9.20
2012,06,20,06,06,9.20
2012,06,20,06,07,9.20
2012,06,20,06,08,9.20
2012,06,20,06,09,9.20
2012,06,20,06,10,9.20
2012,06,20,06,11,9.20
2012,06,20,06,12,9.20
2012,06,20,06,13,9.20
2012,06,20,06,14,9.30
2012,06,20,06,15,9.30
2012,06,20,06,16,9.30
2012,06,20,06,17,9.30
2012,06,20,06,18,9.30
2012,06,20,06,19,9.30
2012,06,20,06,20,9.30
2012,06,20,06,21,9.30
2012,06,20,06,22,9.30
2012,06,20,06,23,9.40
2012,06,20,06,24,9.40
2012,06,20,06,25,9.40
2012,06,20,06,26,9.40
2012,06,20,06,27,9.40
2012,06,20,06,28,9.50
2012,06,20,06,29,9.50
2012,06,20,06,30,9.50
2012,06,20,06,31,9.50
2012,06,20,06,32,9.50
2012,06,20,06,33,9.50
2012,06,20,06,34,9.60
2012,06,20,06,35,9.60
2012,06,20,06,36,9.60
2012,06,20,06,37,9.70
2012,06,20,06,38,9.70
2012,06,20,06,39,9.70
2012,06,20,06,40,9.70
2012,06,20,06,41,9.80
2012,06,20,06,42,9.80
2012,06,20,06,43,9.90
2012,06,20,06,44,9.90
2012,06,20,06,45,9.90
2012,06,20,06,46,9.90
2012,06,20,06,47,9.90
2012,06,20,06,48,10.10
2012,06,20,06,49,10.10
2012,06,20,06,50,10.10
2012,06,20,06,51,10.20
2012,06,20,06,52,10.20
2012,06,20,06,53,10.30
2012,06,20,06,54,10.30
2012,06,20,06,55,10.30
2012,06,20,06,56,10.40
2012,06,20,06,57,10.40
2012,06,20,06,58,10.40
2012,06,20,06,59,10.40
2012,06,20,07,00,10.40
2012,06,20,07,01,10.40
2012,06,20,07,02,10.50
2012,06,20,07,03,10.60
2012,06,20,07,04,10.60
2012,06,20,07,05,10.60
2012,06,20,07,06,10.70
2012,06,20,07,07,10.70
2012,06,20,07,08,10.80
2012,06,20,07,09,10.80
2012,06,20,07,10,10.90
2012,06,20,07,11,10.90
2012,06,20,07,12,11.00
2012,06,20,07,13,11.10
2012,06,20,07,14,11.10
2012,06,20,07,15,11.20
2012,06,20,07,16,11.20
2012,06,20,07,17,11.30
2012,06,20,07,18,11.30
2012,06,20,07,19,11.30
2012,06,20,07,20,11.30
2012,06,20,07,21,11.40
2012,06,20,07,22,11.40
2012,06,20,07,23,11.40
2012,06,20,07,24,11.40
2012,06,20,07,25,11.40
2012,06,20,07,26,11.40
2012,06,20,07,27,11.40
2012,06,20,07,28,11.50
2012,06,20,07,29,11.60
2012,06,20,07,30,11.60
2012,06,20,07,31,11.60
2012,06,20,07,32,11.70
2012,06,20,07,33,11.80
2012,06,20,07,34,11.80
2012,06,20,07,35,11.80
2012,06,20,07,36,11.80
2012,06,20,07,37,11.90
2012,06,20,07,38,11.90
2012,06,20,07,39,11.90
2012,06,20,07,40,11.90
2012,06,20,07,41,12.00
2012,06,20,07,42,12.00
2012,06,20,07,43,12.00
2012,06,20,07,44,12.00
2012,06,20,07,45,12.00
2012,06,20,07,46,12.00
2012,06,20,07,47,12.10
2012,06,20,07,48,12.10
2012,06,20,07,49,12.10
2012,06,20,07,50,12.00
2012,06,20,07,51,12.00
2012,06,20,07,52,12.00
2012,06,20,07,53,12.00
2012,06,20,07,54,12.10
2012,06,20,07,55,12.10
2012,06,20,07,56,12.20
2012,06,20,07,57,12.20
2012,06,20,07,58,12.30
2012,06,20,07,59,12.30
2012,06,20,08,00,12.30
2012,06,20,08,01,12.30
2012,06,20,08,02,12.40
2012,06,20,08,03,12.50
2012,06,20,08,04,12.50
2012,06,20,08,05,12.50
2012,06,20,08,06,12.60
2012,06,20,08,07,12.60
2012,06,20,08,08,12.70
2012,06,20,08,09,12.80
2012,06,20,08,10,12.70
2012,06,20,08,11,12.60
2012,06,20,08,12,12.60
2012,06,20,08,13,12.60
2012,06,20,08,14,12.60
2012,06,20,08,15,12.70
2012,06,20,08,16,12.70
2012,06,20,08,17,12.80
2012,06,20,08,18,12.90
2012,06,20,08,19,12.90
2012,06,20,08,20,12.90
2012,06,20,08,21,12.90
2012,06,20,08,22,13.00
2012,06,20,08,23,13.10
2012,06,20,08,24,13.20
2012,06,20,08,25,13.30
2012,06,20,08,26,13.40
2012,06,20,08,27,13.50
2012,06,20,08,28,13.60
2012,06,20,08,29,13.70
2012,06,20,08,30,13.70
2012,06,20,08,31,13.80
2012,06,20,08,32,13.80
2012,06,20,08,33,13.80
2012,06,20,08,34,13.90
2012,06,20,08,35,13.80
2012,06,20,08,36,13.80
2012,06,20,08,37,13.80
2012,06,20,08,38,13.80
2012,06,20,08,39,13.90
2012,06,20,08,40,13.90
2012,06,20,08,41,13.90
2012,06,20,08,42,14.00
2012,06,20,08,43,14.00
2012,06,20,08,44,14.00
2012,06,20,08,45,14.00
2012,06,20,08,46,14.00
2012,06,20,08,47,14.00
2012,06,20,08,48,14.00
2012,06,20,08,49,14.00
2012,06,20,08,50,13.90
2012,06,20,08,51,13.80
2012,06,20,08,52,13.90
2012,06,20,08,53,13.90
2012,06,20,08,54,13.90
2012,06,20,08,55,13.80
2012,06,20,08,56,13.70
2012,06,20,08,57,13.80
2012,06,20,08,58,13.80
2012,06,20,08,59,13.80
2012,06,20,09,00,13.90
2012,06,20,09,01,13.90
2012,06,20,09,02,14.00
2012,06,20,09,03,14.10
2012,06,20,09,04,14.10
2012,06,20,09,05,14.10
2012,06,20,09,06,14.10
2012,06,20,09,07,14.20
2012,06,20,09,08,14.10
2012,06,20,09,09,14.10
2012,06,20,09,10,14.20
2012,06,20,09,11,14.20
2012,06,20,09,12,14.20
2012,06,20,09,13,14.20
2012,06,20,09,14,14.40
2012,06,20,09,15,14.40
2012,06,20,09,16,14.50
2012,06,20,09,17,14.60
2012,06,20,09,18,14.60
2012,06,20,09,19,14.50
2012,06,20,09,20,14.50
2012,06,20,09,21,14.50
2012,06,20,09,22,14.60
2012,06,20,09,23,14.50
2012,06,20,09,24,14.60
2012,06,20,09,25,14.70
2012,06,20,09,26,14.70
2012,06,20,09,27,14.70
2012,06,20,09,28,14.70
2012,06,20,09,29,14.80
2012,06,20,09,30,14.80
2012,06,20,09,31,14.80
2012,06,20,09,32,14.80
2012,06,20,09,33,14.80
2012,06,20,09,34,14.90
2012,06,20,09,35,15.00
2012,06,20,09,36,15.00
2012,06,20,09,37,15.00
2012,06,20,09,38,15.00
2012,06,20,09,39,15.00
2012,06,20,09,40,14.90
2012,06,20,09,41,14.90
2012,06,20,09,42,14.80
2012,06,20,09,43,14.80
2012,06,20,09,44,14.80
2012,06,20,09,45,14.90
2012,06,20,09,46,15.00
2012,06,20,09,47,15.10
2012,06,20,09,48,15.30
2012,06,20,09,49,15.40
2012,06,20,09,50,15.40
2012,06,20,09,51,15.40
2012,06,20,09,52,15.40
2012,06,20,09,53,15.30
2012,06,20,09,54,15.20
2012,06,20,09,55,15.20
2012,06,20,09,56,15.20
2012,06,20,09,57,15.30
2012,06,20,09,58,15.40
2012,06,20,09,59,15.50
2012,06,20,10,00,15.60
2012,06,20,10,01,15.50
2012,06,20,10,02,15.60
2012,06,20,10,03,15.60
2012,06,20,10,04,15.60
2012,06,20,10,05,15.60
2012,06,20,10,06,15.60
2012,06,20,10,07,15.60
2012,06,20,10,08,15.50
2012,06,20,10,09,15.50
2012,06,20,10,10,15.50
2012,06,20,10,11,15.40
2012,06,20,10,12,15.40
2012,06,20,10,13,15.50
2012,06,20,10,14,15.40
2012,06,20,10,15,15.40
2012,06,20,10,16,15.40
2012,06,20,10,17,15.50
2012,06,20,10,18,15.50
2012,06,20,10,19,15.50
2012,06,20,10,20,15.50
2012,06,20,10,21,15.40
2012,06,20,10,22,15.40
2012,06,20,10,23,15.40
2012,06,20,10,24,15.40
2012,06,20,10,25,15.30
2012,06,20,10,26,15.30
2012,06,20,10,27,15.30
2012,06,20,10,28,15.30
2012,06,20,10,29,15.30
2012,06,20,10,30,15.30
2012,06,20,10,31,15.30
2012,06,20,10,32,15.30
2012,06,20,10,33,15.30
2012,06,20,10,34,15.30
2012,06,20,10,35,15.30
2012,06,20,10,36,15.30
2012,06,20,10,37,15.40
2012,06,20,10,38,15.50
2012,06,20,10,39,15.50
2012,06,20,10,40,15.50
2012,06,20,10,41,15.40
2012,06,20,10,42,15.50
2012,06,20,10,43,15.60
2012,06,20,10,44,15.70
2012,06,20,10,45,15.70
2012,06,20,10,46,15.80
2012,06,20,10,47,15.80
2012,06,20,10,48,15.70
2012,06,20,10,49,15.60
2012,06,20,10,50,15.50
2012,06,20,10,51,15.60
2012,06,20,10,52,15.70
2012,06,20,10,53,15.60
2012,06,20,10,54,15.60
2012,06,20,10,55,15.70
2012,06,20,10,56,15.80
2012,06,20,10,57,15.90
2012,06,20,10,58,15.90
2012,06,20,10,59,15.90
2012,06,20,11,00,15.80
2012,06,20,11,01,15.80
2012,06,20,11,02,15.80
2012,06,20,11,03,15.80
2012,06,20,11,04,15.80
2012,06,20,11,05,15.80
2012,06,20,11,06,15.80
2012,06,20,11,07,15.80
2012,06,20,11,08,15.80
2012,06,20,11,09,15.80
2012,06,20,11,10,15.90
2012,06,20,11,11,16.00
2012,06,20,11,12,16.20
2012,06,20,11,13,16.20
2012,06,20,11,14,16.30
2012,06,20,11,15,16.30
2012,06,20,11,16,16.30
2012,06,20,11,17,16.20
2012,06,20,11,18,16.20
2012,06,20,11,19,16.20
2012,06,20,11,20,16.30
2012,06,20,11,21,16.30
2012,06,20,11,22,16.40
2012,06,20,11,23,16.50
2012,06,20,11,24,16.60
2012,06,20,11,25,16.70
2012,06,20,11,26,16.70
2012,06,20,11,27,16.80
2012,06,20,11,28,16.80
2012,06,20,11,29,16.90
2012,06,20,11,30,16.90
2012,06,20,11,31,16.90
2012,06,20,11,32,16.90
2012,06,20,11,33,17.00
2012,06,20,11,34,17.00
2012,06,20,11,35,17.10
2012,06,20,11,36,17.10
2012,06,20,11,37,17.10
2012,06,20,11,38,17.20
2012,06,20,11,39,17.20
2012,06,20,11,40,17.10
2012,06,20,11,41,17.10
2012,06,20,11,42,17.10
2012,06,20,11,43,17.00
2012,06,20,11,44,17.00
2012,06,20,11,45,17.00
2012,06,20,11,46,17.00
2012,06,20,11,47,16.90
2012,06,20,11,48,16.90
2012,06,20,11,49,16.80
2012,06,20,11,50,16.80
2012,06,20,11,51,16.70
2012,06,20,11,52,16.70
2012,06,20,11,53,16.70
2012,06,20,11,54,16.80
2012,06,20,11,55,16.90
2012,06,20,11,56,17.00
2012,06,20,11,57,17.10
2012,06,20,11,58,17.20
2012,06,20,11,59,17.30
2012,06,20,12,00,17.30
2012,06,20,12,01,17.40
2012,06,20,12,02,17.40
2012,06,20,12,03,17.40
2012,06,20,12,04,17.30
2012,06,20,12,05,17.40
2012,06,20,12,06,17.50
2012,06,20,12,07,17.50
2012,06,20,12,08,17.40
2012,06,20,12,09,17.50
2012,06,20,12,10,17.40
2012,06,20,12,11,17.30
2012,06,20,12,12,17.30
2012,06,20,12,13,17.30
2012,06,20,12,14,17.30
2012,06,20,12,15,17.40
2012,06,20,12,16,17.50
2012,06,20,12,17,17.50
2012,06,20,12,18,17.60
2012,06,20,12,19,17.60
2012,06,20,12,20,17.70
2012,06,20,12,21,17.70
2012,06,20,12,22,17.70
2012,06,20,12,23,17.80
2012,06,20,12,24,17.90
2012,06,20,12,25,17.90
2012,06,20,12,26,18.00
2012,06,20,12,27,18.00
2012,06,20,12,28,18.10
2012,06,20,12,29,18.20
2012,06,20,12,30,18.20
2012,06,20,12,31,18.10
2012,06,20,12,32,18.10
2012,06,20,12,33,17.90
2012,06,20,12,34,17.80
2012,06,20,12,35,17.80
2012,06,20,12,36,17.90
2012,06,20,12,37,17.90
2012,06,20,12,38,17.90
2012,06,20,12,39,17.90
2012,06,20,12,40,17.90
2012,06,20,12,41,17.80
2012,06,20,12,42,17.70
2012,06,20,12,43,17.60
2012,06,20,12,44,17.50
2012,06,20,12,45,17.50
2012,06,20,12,46,17.40
2012,06,20,12,47,17.40
2012,06,20,12,48,17.30
2012,06,20,12,49,17.30
2012,06,20,12,50,17.30
2012,06,20,12,51,17.30
2012,06,20,12,52,17.30
2012,06,20,12,53,17.40
2012,06,20,12,54,17.50
2012,06,20,12,55,17.60
2012,06,20,12,56,17.70
2012,06,20,12,57,17.80
2012,06,20,12,58,17.90
2012,06,20,12,59,18.10
2012,06,20,13,00,18.20
2012,06,20,13,01,18.30
2012,06,20,13,02,18.40
2012,06,20,13,03,18.30
2012,06,20,13,04,18.30
2012,06,20,13,05,18.30
2012,06,20,13,06,18.30
2012,06,20,13,07,18.30
2012,06,20,13,08,18.30
2012,06,20,13,09,18.20
2012,06,20,13,10,18.20
2012,06,20,13,11,18.10
2012,06,20,13,12,18.00
2012,06,20,13,13,18.00
2012,06,20,13,14,18.10
2012,06,20,13,15,18.00
2012,06,20,13,16,17.90
2012,06,20,13,17,17.90
2012,06,20,13,18,18.00
2012,06,20,13,19,18.10
2012,06,20,13,20,18.10
2012,06,20,13,21,18.10
2012,06,20,13,22,18.10
2012,06,20,13,23,18.00
2012,06,20,13,24,18.00
2012,06,20,13,25,18.10
2012,06,20,13,26,18.10
2012,06,20,13,27,18.20
2012,06,20,13,28,18.20
2012,06,20,13,29,18.30
2012,06,20,13,30,18.30
2012,06,20,13,31,18.30
2012,06,20,13,32,18.20
2012,06,20,13,33,18.20
2012,06,20,13,34,18.30
2012,06,20,13,35,18.30
2012,06,20,13,36,18.30
2012,06,20,13,37,18.20
2012,06,20,13,38,18.20
2012,06,20,13,39,18.20
2012,06,20,13,40,18.20
2012,06,20,13,41,18.20
2012,06,20,13,42,18.20
2012,06,20,13,43,18.20
2012,06,20,13,44,18.20
2012,06,20,13,45,18.20
2012,06,20,13,46,18.20
2012,06,20,13,47,18.20
2012,06,20,13,48,18.20
2012,06,20,13,49,18.20
2012,06,20,13,50,18.20
2012,06,20,13,51,18.20
2012,06,20,13,52,18.20
2012,06,20,13,53,18.10
2012,06,20,13,54,18.00
2012,06,20,13,55,17.90
2012,06,20,13,56,17.90
2012,06,20,13,57,17.90
2012,06,20,13,58,17.90
2012,06,20,13,59,18.00
2012,06,20,14,00,18.10
2012,06,20,14,01,18.10
2012,06,20,14,02,18.10
2012,06,20,14,03,18.10
2012,06,20,14,04,18.00
2012,06,20,14,05,18.10
2012,06,20,14,06,18.10
2012,06,20,14,07,18.10
2012,06,20,14,08,18.10
2012,06,20,14,09,18.10
2012,06,20,14,10,18.10
2012,06,20,14,11,18.10
2012,06,20,14,12,18.10
2012,06,20,14,13,18.00
2012,06,20,14,14,17.90
2012,06,20,14,15,18.00
2012,06,20,14,16,18.10
2012,06,20,14,17,18.10
2012,06,20,14,18,18.00
2012,06,20,14,19,18.00
2012,06,20,14,20,18.20
2012,06,20,14,21,18.20
2012,06,20,14,22,18.20
2012,06,20,14,23,18.20
2012,06,20,14,24,18.30
2012,06,20,14,25,18.30
2012,06,20,14,26,18.40
2012,06,20,14,27,18.40
2012,06,20,14,28,18.30
2012,06,20,14,29,18.30
2012,06,20,14,30,18.40
2012,06,20,14,31,18.50
2012,06,20,14,32,18.50
2012,06,20,14,33,18.60
2012,06,20,14,34,18.60
2012,06,20,14,35,18.70
2012,06,20,14,36,18.90
2012,06,20,14,37,18.80
2012,06,20,14,38,18.70
2012,06,20,14,39,18.60
2012,06,20,14,40,18.50
2012,06,20,14,41,18.40
2012,06,20,14,42,18.40
2012,06,20,14,43,18.30
2012,06,20,14,44,18.30
2012,06,20,14,45,18.30
2012,06,20,14,46,18.20
2012,06,20,14,47,18.20
2012,06,20,14,48,18.20
2012,06,20,14,49,18.20
2012,06,20,14,50,18.10
2012,06,20,14,51,18.10
2012,06,20,14,52,18.10
2012,06,20,14,53,18.10
2012,06,20,14,54,18.00
2012,06,20,14,55,17.90
2012,06,20,14,56,17.90
2012,06,20,14,57,17.70
2012,06,20,14,58,17.40
2012,06,20,14,59,17.30
2012,06,20,15,00,17.20
2012,06,20,15,01,17.20
2012,06,20,15,02,17.10
2012,06,20,15,03,17.10
2012,06,20,15,04,17.20
2012,06,20,15,05,17.30
2012,06,20,15,06,17.30
2012,06,20,15,07,17.30
2012,06,20,15,08,17.30
2012,06,20,15,09,17.30
2012,06,20,15,10,17.30
2012,06,20,15,11,17.30
2012,06,20,15,12,17.30
2012,06,20,15,13,17.30
2012,06,20,15,14,17.30
2012,06,20,15,15,17.20
2012,06,20,15,16,17.30
2012,06,20,15,17,17.30
2012,06,20,15,18,17.30
2012,06,20,15,19,17.40
2012,06,20,15,20,17.40
2012,06,20,15,21,17.50
2012,06,20,15,22,17.50
2012,06,20,15,23,17.50
2012,06,20,15,24,17.60
2012,06,20,15,25,17.70
2012,06,20,15,26,17.80
2012,06,20,15,27,17.80
2012,06,20,15,28,17.90
2012,06,20,15,29,17.90
2012,06,20,15,30,17.90
2012,06,20,15,31,17.90
2012,06,20,15,32,18.10
2012,06,20,15,33,18.20
2012,06,20,15,34,18.30
2012,06,20,15,35,18.50
2012,06,20,15,36,18.60
2012,06,20,15,37,18.80
2012,06,20,15,38,18.80
2012,06,20,15,39,18.90
2012,06,20,15,40,19.10
2012,06,20,15,41,19.20
2012,06,20,15,42,19.20
2012,06,20,15,43,19.30
2012,06,20,15,44,19.30
2012,06,20,15,45,19.20
2012,06,20,15,46,19.20
2012,06,20,15,47,19.10
2012,06,20,15,48,19.10
2012,06,20,15,49,19.10
2012,06,20,15,50,19.00
2012,06,20,15,51,18.90
2012,06,20,15,52,18.70
2012,06,20,15,53,18.60
2012,06,20,15,54,18.40
2012,06,20,15,55,18.20
2012,06,20,15,56,18.00
2012,06,20,15,57,17.90
2012,06,20,15,58,17.70
2012,06,20,15,59,17.70
2012,06,20,16,00,17.60
2012,06,20,16,01,17.60
2012,06,20,16,02,17.60
2012,06,20,16,03,17.60
2012,06,20,16,04,17.50
2012,06,20,16,05,17.50
2012,06,20,16,06,17.50
2012,06,20,16,07,17.50
2012,06,20,16,08,17.60
2012,06,20,16,09,17.60
2012,06,20,16,10,17.60
2012,06,20,16,11,17.50
2012,06,20,16,12,17.50
2012,06,20,16,13,17.40
2012,06,20,16,14,17.40
2012,06,20,16,15,17.40
2012,06,20,16,16,17.40
2012,06,20,16,17,17.50
2012,06,20,16,18,17.50
2012,06,20,16,19,17.60
2012,06,20,16,20,17.70
2012,06,20,16,21,17.80
2012,06,20,16,22,17.80
2012,06,20,16,23,17.90
2012,06,20,16,24,17.90
2012,06,20,16,25,17.90
2012,06,20,16,26,17.90
2012,06,20,16,27,17.90
2012,06,20,16,28,18.00
2012,06,20,16,29,18.10
2012,06,20,16,30,18.10
2012,06,20,16,31,18.20
2012,06,20,16,32,18.20
2012,06,20,16,33,18.20
2012,06,20,16,34,18.20
2012,06,20,16,35,18.30
2012,06,20,16,36,18.30
2012,06,20,16,37,18.40
2012,06,20,16,38,18.40
2012,06,20,16,39,18.40
2012,06,20,16,40,18.50
2012,06,20,16,41,18.60
2012,06,20,16,42,18.60
2012,06,20,16,43,18.60
2012,06,20,16,44,18.60
2012,06,20,16,45,18.60
2012,06,20,16,46,18.60
2012,06,20,16,47,18.60
2012,06,20,16,48,18.60
2012,06,20,16,49,18.60
2012,06,20,16,50,18.60
2012,06,20,16,51,18.60
2012,06,20,16,52,18.50
2012,06,20,16,53,18.40
2012,06,20,16,54,18.30
2012,06,20,16,55,18.30
2012,06,20,16,56,18.40
2012,06,20,16,57,18.40
2012,06,20,16,58,18.50
2012,06,20,16,59,18.60
2012,06,20,17,00,18.60
2012,06,20,17,01,18.60
2012,06,20,17,02,18.50
2012,06,20,17,03,18.50
2012,06,20,17,04,18.50
2012,06,20,17,05,18.50
2012,06,20,17,06,18.40
2012,06,20,17,07,18.40
2012,06,20,17,08,18.40
2012,06,20,17,09,18.40
2012,06,20,17,10,18.40
2012,06,20,17,11,18.50
2012,06,20,17,12,18.50
2012,06,20,17,13,18.60
2012,06,20,17,14,18.60
2012,06,20,17,15,18.60
2012,06,20,17,16,18.60
2012,06,20,17,17,18.60
2012,06,20,17,18,18.60
2012,06,20,17,19,18.60
2012,06,20,17,20,18.60
2012,06,20,17,21,18.60
2012,06,20,17,22,18.70
2012,06,20,17,23,18.70
2012,06,20,17,24,18.70
2012,06,20,17,25,18.70
2012,06,20,17,26,18.70
2012,06,20,17,27,18.70
2012,06,20,17,28,18.70
2012,06,20,17,29,18.70
2012,06,20,17,30,18.70